When you browse on this site, cookies collect data to enhance your experience and personalize the content and advertising you see.
Visit our Privacy Policy to learn more. By continuing to use the site, you agree to this use of cookies and data.
  • In Germany
  • List of Countries
  • For 7 days
  • Water Temperature
  • Satellite Maps
  • Weather Map
  • Weather Widgets
  • user-avatar
    Login

    Hourly Weather São Paulo

    Today, 16 December, Sunday

    Time Temperature Precipitation Wind Pressure Humidity
    00:00 +22°C° 0.3 mm 0 mps 701 mmHg 73%
    01:00 +24°C° 0 mm 1 mps 701 mmHg 75%
    02:00 +24°C° 0 mm 1 mps 701 mmHg 76%
    03:00 +23°C° 0 mm 1 mps 700 mmHg 78%
    04:00 +23°C° 0 mm 1 mps 700 mmHg 78%
    05:00 +23°C° 0 mm 1 mps 701 mmHg 78%
    06:00 +23°C° 0 mm 1 mps 701 mmHg 78%
    07:00 +25°C° 0 mm 1 mps 701 mmHg 70%
    08:00 +28°C° 0 mm 2 mps 702 mmHg 61%
    09:00 +30°C° 0 mm 2 mps 703 mmHg 52%
    10:00 +31°C° 0.1 mm 2 mps 703 mmHg 50%
    11:00 +32°C° 0.1 mm 2 mps 703 mmHg 47%
    12:00 +34°C° 0.1 mm 2 mps 702 mmHg 45%
    13:00 +34°C° 0.6 mm 2 mps 702 mmHg 49%
    14:00 +32°C° 0.6 mm 2 mps 701 mmHg 54%
    15:00 +31°C° 0.6 mm 2 mps 701 mmHg 58%
    16:00 +30°C° 1.2 mm 2 mps 701 mmHg 62%
    17:00 +29°C° 1.2 mm 1 mps 700 mmHg 67%
    18:00 +28°C° 1.2 mm 1 mps 700 mmHg 72%
    19:00 +27°C° 0.3 mm 1 mps 700 mmHg 74%
    20:00 +26°C° 0.3 mm 1 mps 700 mmHg 76%
    21:00 +25°C° 0.3 mm 1 mps 700 mmHg 78%
    22:00 +25°C° 0.1 mm 1 mps 700 mmHg 79%
    23:00 +25°C° 0.1 mm 1 mps 700 mmHg 80%

    Tomorrow, 17 December, Monday

    Time Temperature Precipitation Wind Pressure Humidity
    00:00 +25°C° 0.1 mm 1 mps 700 mmHg 81%
    01:00 +24°C° 0 mm 1 mps 700 mmHg 81%
    02:00 +24°C° 0 mm 1 mps 699 mmHg 81%
    03:00 +24°C° 0 mm 1 mps 699 mmHg 81%
    04:00 +24°C° 0 mm 1 mps 699 mmHg 81%
    05:00 +24°C° 0 mm 1 mps 699 mmHg 81%
    06:00 +24°C° 0 mm 1 mps 699 mmHg 81%
    07:00 +26°C° 0 mm 1 mps 700 mmHg 72%
    08:00 +28°C° 0 mm 2 mps 701 mmHg 64%
    09:00 +30°C° 0 mm 2 mps 701 mmHg 56%
    10:00 +31°C° 0.4 mm 2 mps 701 mmHg 54%
    11:00 +32°C° 0.4 mm 2 mps 701 mmHg 52%
    12:00 +34°C° 0.4 mm 2 mps 701 mmHg 50%
    13:00 +32°C° 1 mm 2 mps 700 mmHg 53%
    14:00 +32°C° 1 mm 2 mps 700 mmHg 56%
    15:00 +31°C° 1 mm 2 mps 699 mmHg 59%
    16:00 +30°C° 1.3 mm 2 mps 699 mmHg 64%
    17:00 +29°C° 1.3 mm 2 mps 699 mmHg 69%
    18:00 +27°C° 1.3 mm 2 mps 699 mmHg 74%
    19:00 +27°C° 1 mm 2 mps 699 mmHg 75%
    20:00 +26°C° 1 mm 2 mps 699 mmHg 77%
    21:00 +25°C° 1 mm 2 mps 700 mmHg 79%
    22:00 +25°C° 0.2 mm 2 mps 700 mmHg 80%
    23:00 +25°C° 0.2 mm 2 mps 700 mmHg 81%

    Day after tomorrow, 18 December, Tuesday

    Time Temperature Precipitation Wind Pressure Humidity
    00:00 +25°C° 0.2 mm 2 mps 699 mmHg 82%
    01:00 +24°C° 0 mm 2 mps 699 mmHg 83%
    02:00 +24°C° 0 mm 2 mps 698 mmHg 83%
    03:00 +24°C° 0 mm 2 mps 698 mmHg 83%
    04:00 +24°C° 0 mm 2 mps 698 mmHg 82%
    05:00 +24°C° 0 mm 2 mps 698 mmHg 82%
    06:00 +24°C° 0 mm 2 mps 699 mmHg 81%
    07:00 +26°C° 0 mm 2 mps 699 mmHg 74%
    08:00 +28°C° 0 mm 3 mps 700 mmHg 66%
    09:00 +30°C° 0 mm 3 mps 700 mmHg 58%
    10:00 +31°C° 0.1 mm 3 mps 700 mmHg 54%
    11:00 +33°C° 0.1 mm 3 mps 700 mmHg 51%
    12:00 +34°C° 0.1 mm 3 mps 700 mmHg 47%
    13:00 +34°C° 0.4 mm 3 mps 700 mmHg 49%
    14:00 +34°C° 0.4 mm 3 mps 699 mmHg 50%
    15:00 +34°C° 0.4 mm 3 mps 699 mmHg 51%
    16:00 +31°C° 0.9 mm 3 mps 699 mmHg 58%
    17:00 +30°C° 0.9 mm 3 mps 699 mmHg 65%
    18:00 +28°C° 0.9 mm 3 mps 699 mmHg 72%
    19:00 +27°C° 0.1 mm 3 mps 699 mmHg 74%
    20:00 +27°C° 0.1 mm 2 mps 699 mmHg 76%
    21:00 +26°C° 0.1 mm 2 mps 699 mmHg 77%
    22:00 +26°C° 0 mm 2 mps 699 mmHg 78%
    23:00 +26°C° 0 mm 2 mps 699 mmHg 78%

    19 December, Wednesday

    Time Temperature Precipitation Wind Pressure Humidity
    00:00 +25°C° 0 mm 2 mps 698 mmHg 78%
    01:00 +25°C° 0 mm 2 mps 698 mmHg 79%
    02:00 +25°C° 0 mm 2 mps 698 mmHg 79%
    03:00 +25°C° 0 mm 2 mps 697 mmHg 79%
    04:00 +25°C° 0 mm 2 mps 697 mmHg 80%
    05:00 +24°C° 0 mm 2 mps 698 mmHg 80%
    06:00 +24°C° 0 mm 2 mps 698 mmHg 80%
    07:00 +26°C° 0 mm 2 mps 698 mmHg 73%
    08:00 +28°C° 0 mm 3 mps 699 mmHg 65%
    09:00 +30°C° 0 mm 3 mps 699 mmHg 58%
    10:00 +31°C° 0.3 mm 3 mps 699 mmHg 55%
    11:00 +34°C° 0.3 mm 3 mps 699 mmHg 52%
    12:00 +35°C° 0.3 mm 3 mps 699 mmHg 49%
    13:00 +34°C° 0.5 mm 3 mps 698 mmHg 50%
    14:00 +34°C° 0.5 mm 3 mps 698 mmHg 51%
    15:00 +34°C° 0.5 mm 2 mps 697 mmHg 52%
    16:00 +32°C° 0.6 mm 2 mps 697 mmHg 56%
    17:00 +31°C° 0.6 mm 2 mps 697 mmHg 60%
    18:00 +29°C° 0.6 mm 1 mps 697 mmHg 65%
    19:00 +28°C° 0.9 mm 1 mps 697 mmHg 68%
    20:00 +27°C° 0.9 mm 1 mps 697 mmHg 71%
    21:00 +26°C° 0.9 mm 1 mps 697 mmHg 75%
    22:00 +26°C° 1 mm 1 mps 697 mmHg 77%
    23:00 +26°C° 1 mm 1 mps 698 mmHg 79%

    20 December, Thursday

    Time Temperature Precipitation Wind Pressure Humidity
    00:00 +25°C° 1 mm 1 mps 698 mmHg 81%
    01:00 +25°C° 0.9 mm 1 mps 697 mmHg 82%
    02:00 +25°C° 0.9 mm 1 mps 697 mmHg 83%
    03:00 +22°C° 0.9 mm 0 mps 697 mmHg 85%
    04:00 +24°C° 0.2 mm 1 mps 697 mmHg 86%
    05:00 +24°C° 0.2 mm 1 mps 697 mmHg 87%
    06:00 +24°C° 0.2 mm 1 mps 698 mmHg 88%
    07:00 +25°C° 0.1 mm 1 mps 698 mmHg 84%
    08:00 +26°C° 0.1 mm 1 mps 698 mmHg 80%
    09:00 +27°C° 0.1 mm 1 mps 699 mmHg 77%
    10:00 +29°C° 0.4 mm 1 mps 699 mmHg 70%
    11:00 +30°C° 0.4 mm 2 mps 699 mmHg 64%
    12:00 +31°C° 0.4 mm 2 mps 698 mmHg 58%
    13:00 +32°C° 0 mm 2 mps 698 mmHg 55%
    14:00 +32°C° 0 mm 2 mps 698 mmHg 51%
    15:00 +33°C° 0 mm 3 mps 697 mmHg 47%
    16:00 +31°C° 0 mm 2 mps 697 mmHg 52%
    17:00 +30°C° 0 mm 2 mps 697 mmHg 56%
    18:00 +29°C° 0 mm 2 mps 697 mmHg 61%
    19:00 +29°C° 0 mm 2 mps 697 mmHg 64%
    20:00 +28°C° 0 mm 2 mps 697 mmHg 67%
    21:00 +27°C° 0 mm 1 mps 697 mmHg 70%
    22:00 +26°C° 0 mm 1 mps 697 mmHg 71%
    23:00 +26°C° 0 mm 2 mps 697 mmHg 73%

    21 December, Friday

    Time Temperature Precipitation Wind Pressure Humidity
    00:00 +25°C° 0 mm 2 mps 697 mmHg 74%
    01:00 +25°C° 0 mm 2 mps 696 mmHg 75%
    02:00 +25°C° 0 mm 2 mps 696 mmHg 76%
    03:00 +25°C° 0 mm 2 mps 695 mmHg 77%
    04:00 +25°C° 0 mm 2 mps 696 mmHg 77%
    05:00 +25°C° 0 mm 2 mps 696 mmHg 77%
    06:00 +25°C° 0 mm 2 mps 697 mmHg 77%
    07:00 +26°C° 0 mm 2 mps 697 mmHg 71%
    08:00 +28°C° 0 mm 2 mps 698 mmHg 64%
    09:00 +30°C° 0 mm 2 mps 698 mmHg 58%
    10:00 +31°C° 0.1 mm 2 mps 698 mmHg 53%
    11:00 +32°C° 0.1 mm 2 mps 698 mmHg 49%
    12:00 +35°C° 0.1 mm 2 mps 698 mmHg 45%
    13:00 +35°C° 0.1 mm 2 mps 697 mmHg 44%
    14:00 +35°C° 0.1 mm 3 mps 697 mmHg 43%
    15:00 +35°C° 0.1 mm 3 mps 697 mmHg 42%
    16:00 +34°C° 0 mm 2 mps 696 mmHg 46%
    17:00 +32°C° 0 mm 2 mps 696 mmHg 50%
    18:00 +31°C° 0 mm 1 mps 696 mmHg 54%
    19:00 +30°C° 0.3 mm 1 mps 697 mmHg 59%
    20:00 +28°C° 0.3 mm 1 mps 697 mmHg 64%
    21:00 +27°C° 0.3 mm 1 mps 697 mmHg 69%
    22:00 +26°C° 0.6 mm 1 mps 697 mmHg 73%
    23:00 +26°C° 0.6 mm 1 mps 697 mmHg 77%
    Show more